Location: Newark
(47.5833°N, 8.1500°E)
Time: 08:46:41
(UTC+00:00)

Tiros 1 despin weight - Pass Details

Date: 02 November 2020
Orbit: 593 x 642 km, 48.2° (Epoch: 26 November)

Event Time Altitude Azimuth Distance (km) Brightness Sun altitude
Rises 04:54:04 0° 277° (W) 2,834 - -13.8°
Reaches altitude 10° 04:58:08 10° 240° (WSW) 1,922 - -13.1°
Exits shadow 04:58:38 11° 234° (SW) 1,882 ? -13.0°
Maximum altitude 04:59:14 11° 226° (SW) 1,864 ? -12.9°
Drops below altitude 10° 05:00:21 10° 211° (SSW) 1,917 ? -12.7°
Sets 05:04:23 0° 174° (S) 2,813 ? -12.0°
